GW6451 Weather Reports


Display with metric or nautical units.
time (UTC)temp
F
wind
direction
speed
MPH
gust
MPH
rain 1hr
in
rain 24hr
in
rain mn
in
humidity
%
barometer
mb
20260503020520 54 214 3.0 4.0 0.00 0.00 0.00 47 1013.0
20260503015520 54 222 2.0 3.0 0.00 0.00 0.00 47 1013.0
20260503014521 55 226 3.0 4.0 0.00 0.00 0.00 47 1013.0
20260503013527 55 233 3.0 5.0 0.00 0.00 0.00 45 1012.9
20260503012518 56 224 3.0 5.0 0.00 0.00 0.00 45 1012.9
20260503011518 56 239 3.0 5.0 0.00 0.00 0.00 44 1012.9
20260503010519 57 247 3.0 6.0 0.00 0.00 0.00 43 1013.0
20260503005522 57 241 4.0 7.0 0.00 0.00 0.00 43 1013.0
20260503004534 0 240 4.0 7.0 0.00 0.00 0.00
20260503003531 58 255 6.0 10.0 0.00 0.00 0.00 42 1013.0
20260503002542 59 256 6.0 9.0 0.00 0.00 0.00 39 1013.0
20260503001539 59 246 5.0 9.0 0.00 0.00 0.00 39 1013.1
20260503000539 60 242 5.0 10.0 0.00 0.00 0.00 38 1013.1
20260502235520 60 239 7.0 11.0 0.00 0.00 0.00 38 1013.3
20260502234520 60 250 6.0 9.0 0.00 0.00 0.00 38 1013.5
20260502233527 60 238 6.0 8.0 0.00 0.00 0.00 38 1013.5
20260502232537 60 245 6.0 10.0 0.00 0.00 0.00 36 1013.7
20260502231558 60 248 6.0 9.0 0.00 0.00 0.00 35 1013.7
20260502230520 60 253 7.0 11.0 0.00 0.00 0.00 36 1013.7
20260502225520 60 242 7.0 12.0 0.00 0.00 0.00 35 1013.7
20260502224533 0 236 7.0 11.0 0.00 0.00 0.00
20260502223539 61 267 6.0 10.0 0.00 0.00 0.00 36 1014.1
20260502222538 60 254 7.0 13.0 0.00 0.00 0.00 35 1014.2
20260502221541 0 256 7.0 13.0 0.00 0.00 0.00
20260502220518 59 275 6.0 11.0 0.00 0.00 0.00 36 1014.4
20260502215519 58 255 7.0 10.0 0.00 0.00 0.00 35 1014.6
20260502214542 58 240 6.0 11.0 0.00 0.00 0.00 36 1014.6
20260502213522 59 254 8.0 13.0 0.00 0.00 0.00 35 1014.7
20260502212707 59 273 7.0 13.0 0.00 0.00 0.00 35 1014.8
20260502211519 59 267 7.0 10.0 0.00 0.00 0.00 34 1014.9
20260502210522 59 269 8.0 11.0 0.00 0.00 0.00 35 1015.0
20260502205552 58 255 8.0 12.0 0.00 0.00 0.00 33 1015.2
20260502204523 58 269 7.0 14.0 0.00 0.00 0.00 35 1015.4
20260502203518 58 268 9.0 13.0 0.00 0.00 0.00 35 1015.5
20260502202520 58 225 7.0 12.0 0.00 0.00 0.00 36 1015.6
20260502201520 58 267 7.0 14.0 0.00 0.00 0.00 36 1015.9
20260502200519 58 273 8.0 15.0 0.00 0.00 0.00 36 1016.0
20260502195526 57 269 8.0 13.0 0.00 0.00 0.00 37 1016.2
20260502194518 57 253 6.0 11.0 0.00 0.00 0.00 38 1016.3
20260502193518 57 282 8.0 12.0 0.00 0.00 0.00 39 1016.4
20260502192519 56 267 8.0 12.0 0.00 0.00 0.00 38 1016.7
20260502191522 56 289 8.0 13.0 0.00 0.00 0.00 39 1016.8
20260502190519 56 267 8.0 12.0 0.00 0.00 0.00 40 1017.0
20260502185523 0 263 8.0 13.0 0.00 0.00 0.00
20260502184521 0 284 8.0 13.0 0.00 0.00 0.00
20260502183520 55 291 7.0 11.0 0.00 0.00 0.00 41 1017.4
20260502182522 55 243 7.0 12.0 0.00 0.00 0.00 39 1017.4
20260502181519 55 268 6.0 10.0 0.00 0.00 0.00 40 1017.6
20260502180520 55 250 7.0 12.0 0.00 0.00 0.00 38 1017.6
20260502163521 0 284 7.0 13.0 0.00 0.00 0.00
20260502162528 53 316 6.0 10.0 0.00 0.00 0.00 41 1018.6
20260502161518 52 302 6.0 9.0 0.00 0.00 0.00 43 1018.8
20260502160518 52 259 8.0 14.0 0.00 0.00 0.00 40 1018.8
20260502151519 0 271 7.0 13.0 0.00 0.00 0.00
20260502150520 50 272 7.0 12.0 0.00 0.00 0.00 48 1019.1
20260502130542 43 240 4.0 7.0 0.00 0.00 0.00 57 1019.7
20260502123529 0 261 5.0 10.0 0.00 0.00 0.00
20260502122600 40 258 5.0 8.0 0.00 0.00 0.00 59 1019.5
20260502121522 39 251 4.0 7.0 0.00 0.00 0.00 59 1019.5
20260502120524 38 242 4.0 5.0 0.00 0.00 0.00 61 1019.5
20260502115527 38 243 3.0 5.0 0.00 0.00 0.00 61 1019.4
20260502114607 38 239 2.0 4.0 0.00 0.00 0.00 60 1019.3
20260502113529 38 237 3.0 5.0 0.00 0.00 0.00 60 1019.2
20260502112533 38 229 3.0 4.0 0.00 0.00 0.00 59 1019.1
20260502111545 38 242 3.0 5.0 0.00 0.00 0.00 58 1019.1
20260502110530 38 240 3.0 4.0 0.00 0.00 0.00 59 1019.1
20260502105528 37 278 2.0 3.0 0.00 0.00 0.00 59 1019.1
20260502104529 37 279 3.0 3.0 0.00 0.00 0.00 60 1019.1
20260502103631 37 250 2.0 3.0 0.00 0.00 0.00 60 1019.1
20260502102529 0 245 2.0 3.0 0.00 0.00 0.00
20260502100529 38 256 0.0 1.0 0.00 0.00 0.00 58 1019.1
20260502091531 38 0.0 0.0 0.00 0.00 0.00 59 1019.0
20260502090530 38 175 0.0 1.0 0.00 0.00 0.00 57 1019.0
20260502071519 39 188 0.0 2.0 0.00 0.00 0.00 57 1019.1
20260502070519 38 185 0.0 1.0 0.00 0.00 0.00 57 1019.1
20260502065540 38 185 0.0 1.0 0.00 0.00 0.00 59 1019.2
20260502064526 38 0.0 0.0 0.00 0.00 0.00 58 1019.2
20260502063530 38 103 0.0 1.0 0.00 0.00 0.00 60 1019.3
20260502062529 38 0.0 0.0 0.00 0.00 0.00 58 1019.3
20260502061521 38 0.0 0.0 0.00 0.00 0.00 58 1019.4
20260502060520 38 0.0 0.0 0.00 0.00 0.00 57 1019.4
20260502055537 39 0.0 0.0 0.00 0.00 0.00 57 1019.3
20260502054517 39 67 0.0 1.0 0.00 0.00 0.00 56 1019.3
20260502053533 40 0.0 0.0 0.00 0.00 0.00 55 1019.3
20260502052521 40 65 0.0 1.0 0.00 0.00 0.00 54 1019.3
20260502051544 40 0 0.0 0.0 0.00 0.00 0.00 53 1019.2
20260502050523 40 0.0 0.0 0.00 0.00 0.00 54 1019.2
20260502045538 41 0.0 0.0 0.00 0.00 0.00 54 1019.1
20260502044522 41 109 0.0 0.0 0.00 0.00 0.00 54 1019.1
20260502043530 0 7 0.0 1.0 0.00 0.00 0.00
20260502042535 41 68 0.0 1.0 0.00 0.00 0.00 51 1019.1
20260502041534 41 351 0.0 0.0 0.00 0.00 0.00 51 1019.1
20260502040522 41 30 0.0 1.0 0.00 0.00 0.00 55 1019.0
20260502035540 41 0.0 0.0 0.00 0.00 0.00 55 1019.0
20260502034519 41 0.0 0.0 0.00 0.00 0.00 54 1019.0
20260502033519 41 47 0.0 1.0 0.00 0.00 0.00 54 1019.0
20260502032520 41 0.0 0.0 0.00 0.00 0.00 54 1019.0
20260502031520 42 0.0 0.0 0.00 0.00 0.00 52 1019.0
20260502030524 42 0.0 0.0 0.00 0.00 0.00 53 1019.0
20260502025526 42 0.0 0.0 0.00 0.00 0.00 51 1019.0
20260502024520 42 19 0.0 0.0 0.00 0.00 0.00 52 1018.9
20260502023524 0 0.0 0.0 0.00 0.00 0.00
20260502022531 43 89 0.0 0.0 0.00 0.00 0.00 50 1018.8
20260502021518 43 0.0 0.0 0.00 0.00 0.00 51 1018.7